TimePDT,TemperatureF,Dew PointF,Humidity,Sea Level PressureIn,VisibilityMPH,Wind Direction,Wind SpeedMPH,Gust SpeedMPH,PrecipitationIn,Events,Conditions,WindDirDegrees,DateUTC
12:53 AM,55.0,52.0,89,30.10,10.0,Calm,Calm,-,N/A,,Clear,0,2013-08-31 07:53:00
1:53 AM,52.0,51.1,97,30.10,10.0,Calm,Calm,-,N/A,,Clear,0,2013-08-31 08:53:00
2:53 AM,53.1,52.0,96,30.09,10.0,Calm,Calm,-,N/A,,Clear,0,2013-08-31 09:53:00
3:53 AM,54.0,54.0,100,30.08,10.0,Calm,Calm,-,N/A,,Clear,0,2013-08-31 10:53:00
4:53 AM,57.0,55.9,96,30.09,10.0,North,3.5,-,N/A,,Clear,10,2013-08-31 11:53:00
5:53 AM,55.9,55.0,97,30.08,10.0,Calm,Calm,-,N/A,,Clear,0,2013-08-31 12:53:00
6:53 AM,57.0,55.9,96,30.08,9.0,Variable,4.6,-,N/A,,Clear,0,2013-08-31 13:53:00
7:34 AM,60.8,57.2,88,30.07,10.0,Variable,4.6,-,N/A,,Scattered Clouds,0,2013-08-31 14:34:00
7:43 AM,59.0,57.2,94,30.07,10.0,Variable,4.6,-,N/A,,Mostly Cloudy,0,2013-08-31 14:43:00
7:53 AM,60.1,57.9,93,30.07,10.0,North,6.9,-,N/A,,Scattered Clouds,350,2013-08-31 14:53:00
8:53 AM,62.1,57.0,84,30.06,10.0,North,8.1,-,N/A,,Clear,350,2013-08-31 15:53:00
9:53 AM,66.0,57.0,73,30.06,10.0,North,11.5,-,N/A,,Clear,360,2013-08-31 16:53:00
10:53 AM,66.9,57.0,70,30.04,10.0,NNW,8.1,-,N/A,,Clear,340,2013-08-31 17:53:00
11:53 AM,69.1,57.0,65,30.02,10.0,Variable,6.9,-,N/A,,Clear,0,2013-08-31 18:53:00
12:53 PM,71.1,57.0,61,30.00,10.0,North,8.1,-,N/A,,Clear,350,2013-08-31 19:53:00
1:53 PM,71.1,55.9,59,29.99,10.0,North,8.1,-,N/A,,Clear,360,2013-08-31 20:53:00
2:53 PM,73.0,55.0,53,29.96,10.0,North,9.2,-,N/A,,Clear,360,2013-08-31 21:53:00
3:53 PM,73.0,55.0,53,29.93,10.0,North,10.4,-,N/A,,Clear,10,2013-08-31 22:53:00
4:53 PM,73.0,54.0,51,29.91,10.0,North,6.9,-,N/A,,Clear,350,2013-08-31 23:53:00
5:53 PM,72.0,54.0,53,29.88,10.0,North,8.1,-,N/A,,Clear,360,2013-09-01 00:53:00
6:53 PM,70.0,54.0,57,29.87,10.0,Calm,Calm,-,N/A,,Clear,0,2013-09-01 01:53:00
7:53 PM,64.0,54.0,70,29.86,10.0,Calm,Calm,-,N/A,,Clear,0,2013-09-01 02:53:00
8:53 PM,59.0,53.1,81,29.87,10.0,Calm,Calm,-,N/A,,Clear,0,2013-09-01 03:53:00
9:53 PM,55.9,53.1,90,29.87,10.0,Calm,Calm,-,N/A,,Clear,0,2013-09-01 04:53:00
10:53 PM,55.0,53.1,93,29.87,10.0,Calm,Calm,-,N/A,,Clear,0,2013-09-01 05:53:00
11:53 PM,55.0,53.1,93,29.87,10.0,Calm,Calm,-,N/A,,Clear,0,2013-09-01 06:53:00